Date String (YYYY-MM-DD hh:mm:ss) UTC,Instrument flags,absolute air pressure of the measurement (hPa),sample flow rate (lpm),inlet stack bypass flow (lpm),air temperature of the measurement (°C),ambient temperature measured by the external sensor (°C),aerosol sample conditioner tube jacket temperature (°C),OPC LED temperature (°C),internal box temperature (°C),relative humidity of the measurement (%),span deviation,mass concentration of particles derived from Lorenz-Mie calculation of OPC scattering (μg/m³),mass concentration of particles derived from Lorenz-Mie calculation of OPC scattering (μg/m³),mass concentration of particles derived from Lorenz-Mie calculation of OPC scattering (μg/m³)
DateTimeUTC,F1_M11,P_M11,Q1_M11,Q2_M11,T1_M11,T2_M11,T3_M11,T4_M11,T5_M11,U1_M11,ZSPAN_M11,X0_M11,X2_M11,X1_M11
2023-09-19 21:00:00,SystemResetWarning,0828.7,5.00,000.00,027.8,025.1,000.0,036.2,029.2,20.8,0000.0,0005.56,0002.31,0001.81
2023-09-19 21:01:00,SystemResetWarning,0828.7,5.00,000.00,027.8,025.5,000.0,036.2,029.3,21.2,0000.0,0004.58,0002.34,0001.82
2023-09-19 21:02:00,SystemResetWarning,0828.8,5.00,000.00,027.8,025.8,000.0,036.2,029.3,21.1,0000.0,0004.26,0002.29,0001.80
2023-09-19 21:03:00,SystemResetWarning,0828.7,5.01,000.00,027.8,026.0,000.0,036.2,029.4,21.3,0000.0,0004.06,0002.24,0001.78
2023-09-19 21:04:00,SystemResetWarning,0828.8,4.99,000.00,027.9,026.3,000.0,036.2,029.4,20.8,0000.0,0003.78,0002.16,0001.75
2023-09-19 21:05:00,SystemResetWarning,0828.8,5.00,000.00,027.9,026.5,000.0,036.2,029.5,21.2,0000.0,0003.21,0002.19,0001.72
2023-09-19 21:06:00,SystemResetWarning,0828.7,5.02,000.00,027.9,026.7,000.0,036.2,029.6,21.2,0000.0,0003.19,0002.19,0001.70
2023-09-19 21:07:00,SystemResetWarning,0828.7,5.00,000.00,028.0,026.8,000.0,036.3,029.7,22.3,0000.0,0002.96,0002.12,0001.67
2023-09-19 21:08:00,SystemResetWarning,0828.7,4.99,000.00,028.0,026.9,000.0,036.3,029.8,22.0,0000.0,0002.87,0002.07,0001.64
2023-09-19 21:09:00,SystemResetWarning,0828.6,4.99,000.00,028.0,026.1,000.0,036.3,029.6,21.3,0000.0,0003.08,0002.03,0001.61
2023-09-19 21:10:00,SystemResetWarning,0828.6,5.01,000.00,027.9,024.7,000.0,036.2,029.3,19.2,0000.0,0003.14,0001.99,0001.57
2023-09-19 21:11:00,SystemResetWarning,0828.5,5.01,000.00,027.9,024.5,000.0,036.2,029.3,17.8,0000.0,0003.06,0001.94,0001.55
2023-09-19 21:12:00,SystemResetWarning,0828.6,4.99,000.00,027.8,024.8,000.0,036.2,029.2,17.9,0000.0,0003.23,0001.91,0001.52
2023-09-19 21:13:00,SystemResetWarning,0828.5,5.01,000.00,027.8,025.1,000.0,036.2,029.3,17.5,0000.0,0003.32,0001.88,0001.49
2023-09-19 21:14:00,SystemResetWarning,0828.5,4.99,000.00,027.8,025.4,000.0,036.2,029.3,17.9,0000.0,0003.26,0001.85,0001.48
2023-09-19 21:15:00,SystemResetWarning,0828.5,5.00,000.00,027.8,025.7,000.0,036.2,029.4,18.4,0000.0,0003.35,0001.87,0001.48
2023-09-19 21:16:00,SystemResetWarning,0828.4,5.00,000.00,027.8,026.0,000.0,036.2,029.5,18.1,0000.0,0003.42,0001.91,0001.50
2023-09-19 21:17:00,SystemResetWarning,0828.5,5.00,000.00,027.8,026.2,000.0,036.2,029.5,17.5,0000.0,0003.47,0001.91,0001.52
2023-09-19 21:18:00,SystemResetWarning,0828.4,5.00,000.00,027.9,026.4,000.0,036.2,029.6,16.9,0000.0,0007.27,0002.11,0001.55
2023-09-19 21:19:00,SystemResetWarning,0828.5,4.99,000.00,027.9,026.5,000.0,036.2,029.6,16.5,0000.0,0008.16,0002.24,0001.58
2023-09-19 21:20:00,SystemResetWarning,0828.5,4.99,000.00,027.9,026.7,000.0,036.2,029.7,16.6,0000.0,0008.15,0002.25,0001.61
2023-09-19 21:21:00,SystemResetWarning,0828.5,4.99,000.00,028.0,026.8,000.0,036.2,029.7,16.6,0000.0,0008.17,0002.30,0001.65
2023-09-19 21:22:00,SystemResetWarning,0828.6,5.00,000.00,028.0,026.9,000.0,036.3,029.8,16.8,0000.0,0008.43,0002.36,0001.68
2023-09-19 21:23:00,SystemResetWarning,0828.5,5.02,000.00,028.1,027.0,000.0,036.3,029.8,16.7,0000.0,0008.67,0002.40,0001.71
2023-09-19 21:24:00,SystemResetWarning,0828.5,5.01,000.00,028.1,026.9,000.0,036.3,029.8,17.0,0000.0,0008.60,0002.45,0001.75
2023-09-19 21:25:00,SystemResetWarning,0828.5,4.98,000.00,028.0,025.4,000.0,036.3,029.4,19.4,0000.0,0009.04,0002.56,0001.78
2023-09-19 21:26:00,SystemResetWarning,0828.5,5.00,000.00,027.9,024.7,000.0,036.2,029.3,19.9,0000.0,0009.79,0002.73,0001.81
2023-09-19 21:27:00,SystemResetWarning,0828.5,5.02,000.00,027.9,024.8,000.0,036.2,029.2,20.6,0000.0,0009.87,0002.75,0001.82
2023-09-19 21:28:00,SystemResetWarning,0828.5,4.99,000.00,027.8,025.0,000.0,036.2,029.2,20.8,0000.0,0009.88,0002.74,0001.83
2023-09-19 21:29:00,SystemResetWarning,0828.5,4.99,000.00,027.8,025.4,000.0,036.2,029.3,21.2,0000.0,0008.78,0002.67,0001.83
2023-09-19 21:30:00,SystemResetWarning,0828.5,5.00,000.00,027.8,025.7,000.0,036.2,029.3,20.5,0000.0,0006.75,0002.51,0001.84
2023-09-19 21:31:00,SystemResetWarning,0828.5,5.00,000.00,027.8,025.9,000.0,036.2,029.4,20.3,0000.0,0006.81,0002.55,0001.85
2023-09-19 21:32:00,SystemResetWarning,0828.6,5.01,000.00,027.9,026.2,000.0,036.2,029.5,19.2,0000.0,0006.55,0002.56,0001.86
2023-09-19 21:33:00,SystemResetWarning,0828.6,5.01,000.00,027.9,026.3,000.0,036.2,029.6,18.6,0000.0,0007.93,0002.55,0001.86
2023-09-19 21:34:00,SystemResetWarning,0828.5,5.00,000.00,027.9,026.5,000.0,036.2,029.6,19.6,0000.0,0008.18,0002.64,0001.87
2023-09-19 21:35:00,SystemResetWarning,0828.5,4.99,000.00,028.0,026.7,000.0,036.3,029.7,19.4,0000.0,0009.45,0002.72,0001.88
2023-09-19 21:36:00,SystemResetWarning,0828.5,4.99,000.00,028.0,026.8,000.0,036.3,029.7,19.2,0000.0,0009.37,0002.73,0001.88
2023-09-19 21:37:00,SystemResetWarning,0828.5,5.00,000.00,028.0,026.9,000.0,036.3,029.8,17.8,0000.0,0008.57,0002.65,0001.89
2023-09-19 21:38:00,SystemResetWarning,0828.4,5.00,000.00,028.1,026.6,000.0,036.3,029.7,19.0,0000.0,0008.49,0002.58,0001.88
2023-09-19 21:39:00,SystemResetWarning,0828.4,5.01,000.00,028.0,025.0,000.0,036.3,029.4,19.1,0000.0,0008.55,0002.57,0001.89
2023-09-19 21:40:00,SystemResetWarning,0828.4,5.01,000.00,027.9,024.6,000.0,036.2,029.3,18.7,0000.0,0008.62,0002.60,0001.89
2023-09-19 21:41:00,SystemResetWarning,0828.4,4.99,000.00,027.8,024.8,000.0,036.2,029.2,19.2,0000.0,0008.56,0002.59,0001.89
2023-09-19 21:42:00,SystemResetWarning,0828.4,5.01,000.00,027.8,025.0,000.0,036.2,029.2,17.9,0000.0,0008.51,0002.56,0001.88
2023-09-19 21:43:00,SystemResetWarning,0828.4,4.99,000.00,027.8,025.4,000.0,036.2,029.3,20.1,0000.0,0008.53,0002.57,0001.87
2023-09-19 21:44:00,SystemResetWarning,0828.4,4.99,000.00,027.8,025.7,000.0,036.2,029.4,21.9,0000.0,0007.12,0002.56,0001.86
2023-09-19 21:45:00,SystemResetWarning,0828.4,5.00,000.00,027.8,026.0,000.0,036.2,029.4,22.2,0000.0,0006.30,0002.49,0001.85
2023-09-19 21:46:00,SystemResetWarning,0828.4,5.00,000.00,027.9,026.2,000.0,036.2,029.5,21.8,0000.0,0003.97,0002.41,0001.84
2023-09-19 21:47:00,SystemResetWarning,0828.5,5.00,000.00,027.9,026.4,000.0,036.2,029.6,24.0,0000.0,0003.81,0002.36,0001.84
2023-09-19 21:48:00,SystemResetWarning,0828.5,5.00,000.00,027.9,026.6,000.0,036.3,029.6,23.6,0000.0,0003.71,0002.31,0001.83
2023-09-19 21:49:00,SystemResetWarning,0828.5,4.99,000.00,028.0,026.8,000.0,036.3,029.7,23.6,0000.0,0003.57,0002.31,0001.83
2023-09-19 21:50:00,SystemResetWarning,0828.5,5.00,000.00,028.0,026.9,000.0,036.3,029.8,23.0,0000.0,0003.37,0002.28,0001.81
2023-09-19 21:51:00,SystemResetWarning,0828.6,4.99,000.00,028.0,026.4,000.0,036.3,029.7,21.9,0000.0,0003.14,0002.23,0001.80
2023-09-19 21:52:00,SystemResetWarning,0828.5,5.00,000.00,027.9,025.1,000.0,036.3,029.3,20.5,0000.0,0003.13,0002.21,0001.78
2023-09-19 21:53:00,SystemResetWarning,0828.5,5.00,000.00,027.9,024.8,000.0,036.2,029.3,20.4,0000.0,0003.09,0002.18,0001.76
2023-09-19 21:54:00,SystemResetWarning,0828.5,5.00,000.00,027.8,025.0,000.0,036.2,029.3,21.7,0000.0,0003.08,0002.11,0001.74
2023-09-19 21:55:00,SystemResetWarning,0828.6,5.01,000.00,027.8,025.3,000.0,036.2,029.3,21.6,0000.0,0003.15,0002.10,0001.74
2023-09-19 21:56:00,SystemResetWarning,0828.5,5.00,000.00,027.8,025.6,000.0,036.2,029.4,21.5,0000.0,0003.08,0002.07,0001.73
2023-09-19 21:57:00,SystemResetWarning,0828.5,5.00,000.00,027.8,025.9,000.0,036.2,029.5,21.7,0000.0,0003.02,0002.02,0001.70
2023-09-19 21:58:00,SystemResetWarning,0828.5,5.00,000.00,027.9,026.1,000.0,036.2,029.5,21.5,0000.0,0002.92,0001.96,0001.65
2023-09-19 21:59:00,SystemResetWarning,0828.5,5.00,000.00,027.9,026.3,000.0,036.2,029.6,21.8,0000.0,0002.80,0001.92,0001.61
